Notices

What's New in latest Release from April 7th, 2021:

- Updated Glossary, including Speed of Maximum Gust, and Total Hourly Precipitation

- Updated national and regional climate services offices contacts and prices information

- Addition of station inventory lists for 1981-2010, 1971-2000, and 1961-1990 Normals.

If you haven't already, please take our survey and provide feedback about our website: https://eccc.sondage-survey.ca/f/LanguageSelection.aspx?s=442ca660-fcf1-47c0-95a9-59707d6fd709

Hourly Data Report for December 01, 2020

SHEARWATER RCS
NOVA SCOTIA
Current Station Operator: ECCC - MSC

44°37'47.000" N
63°30'48.000" W
24.00 m
8205092
71264
AAW

Download Data

Hourly Data (December 2020)
Hourly Data Report for December 1, 2020
TIME
LST
Temp Definition
°C
Dew Point Definition
°C
Rel Hum Definition
%
Precip. Amount Definition
mm

Wind Dir Definition
10's deg

Wind Spd Definition
km/h
Visibility Definition
km
Stn Press Definition
kPa
Hmdx Definition


Wind Chill Definition


Weather Definition


00:00 10.8 8.9 88 0.0 12 28   102.04     LegendNANA
01:00 11.0 9.0 87 0.0 13 29   102.00     LegendNANA
02:00 11.1 9.4 89 0.0 13 27   101.96     LegendNANA
03:00 11.4 9.9 91 0.0 13 28   101.90     LegendNANA
04:00 11.6 10.2 91 0.0 13 28   101.86     LegendNANA
05:00 11.8 10.4 91 0.0 13 29   101.76     LegendNANA
06:00 12.1 10.4 90 0.0 14 30   101.80     LegendNANA
07:00 12.0 10.3 89 0.0 14 23   101.79     LegendNANA
08:00 12.0 10.0 87 0.0 14 22   101.79     LegendNANA
09:00 11.7 9.8 88 0.0 15 18   101.82     LegendNANA
10:00 11.9 10.1 89 0.2 13 12   101.82     LegendNANA
11:00 11.7 9.9 88 0.0 14 15   101.74     LegendNANA
12:00 12.6 10.3 86 0.0 14 18   101.65     LegendNANA
13:00 12.6 10.7 88 0.3 14 21   101.56     LegendNANA
14:00 12.5 10.9 90 1.2 14 20   101.50     LegendNANA
15:00 12.7 10.8 88 0.0 14 24   101.46     LegendNANA
16:00 12.9 10.9 88 0.0 14 25   101.41     LegendNANA
17:00 13.1 10.9 87 0.0 14 26   101.34     LegendNANA
18:00 13.3 10.9 86 0.0 14 25   101.33     LegendNANA
19:00 13.6 10.8 84 0.0 14 23   101.31     LegendNANA
20:00 13.7 11.0 84 0.0 14 26   101.29     LegendNANA
21:00 13.5 11.4 87 0.0 14 23   101.25     LegendNANA
22:00 13.7 12.1 90 0.0 13 28   101.14     LegendNANA
23:00 13.6 12.3 92 0.0 13 25   101.11     LegendNANA

Notes on Data Quality.

Legend

  • E = Estimated
  • M = Missing
  • NA = Not Available*
  • [empty] = Indicates an unobserved value
Date modified: